Weather History for KPKB - July, 2013

Change the Weather History Date:

Friday, July 19, 2013

  Actual Average Record
Temperature  
Mean Temperature 81 °F 74 °F  
Max Temperature 91 °F 85 °F 101 °F (1930)
Min Temperature 70 °F 64 °F 53 °F (1984)
Degree Days  
Heating Degree Days 0 0  
Month to date heating degree days 0 0  
Since 1 June heating degree days 6 19  
Since 1 July heating degree days 0 0  
Cooling Degree Days 16 10  
Month to date cooling degree days 225 182  
Year to date cooling degree days 537 457  
Since 1 June cooling degree days 411 373  
Growing Degree Days 30 (Base 50)    
Moisture  
Dew Point 72 °F    
Average Humidity 80    
Maximum Humidity 100    
Minimum Humidity 59    
Precipitation  
Precipitation 0.09 in 0.13 in 1.18 in (2000)
Month to date precipitation 5.53 2.54  
Year to date precipitation 24.26 23.51  
Sea Level Pressure  
Sea Level Pressure 30.03 in    
Wind  
Wind Speed 4 mph (SW)    
Max Wind Speed 15 mph    
Max Gust Speed 20 mph    
Visibility 5 miles    
Events Rain , Thunderstorm    
T = Trace of Precipitation, MM = Missing Value Source: NWS Daily Summary

Daily Weather History Graph

Daily Weather History Graph

Search for Another Location

Airport or City:

Trip Planner

Search our weather history database for the weather conditions in past years. The results will help you decide how hot, cold, wet, or windy it might be!

Date:

Astronomy

Jul. 19, 2013 Rise Set
Actual Time 6:14 AM EDT 8:48 PM EDT
Civil Twilight 5:43 AM EDT 9:19 PM EDT
Nautical Twilight 5:04 AM EDT 9:58 PM EDT
Astronomical Twilight 4:21 AM EDT 10:41 PM EDT
Moon 5:50 PM EDT (7/19) 2:54 AM EDT (7/19)
Length of Visible Light 15h 36m
Length of Day
14h 34m
Waxing Gibbous, 86% of the Moon is Illuminated
Jul 19
Waxing Gibbous
Jul 22
Full
Jul 29
Last Quarter
Aug 6
New
Aug 14
First Quarter

Hourly Weather History & Observations

Time (EDT) Temp. Heat Index Dew Point Humidity Pressure Visibility Wind Dir Wind Speed Gust Speed Precip Events Conditions
12:53 AM 79.0 °F - 75.0 °F 88% 30.07 in 7.0 mi Calm Calm - N/A   Clear
1:53 AM 78.1 °F - 75.0 °F 90% 30.06 in 5.0 mi Calm Calm - N/A   Clear
2:53 AM 75.9 °F - 73.9 °F 94% 30.06 in 5.0 mi Calm Calm - N/A   Clear
3:40 AM 75.2 °F - 73.4 °F 94% 30.08 in 2.0 mi Calm Calm - N/A   Clear
3:53 AM 75.0 °F - 73.9 °F 96% 30.05 in 1.8 mi Calm Calm - N/A   Clear
4:03 AM 75.2 °F - 73.4 °F 94% 30.08 in 2.5 mi Calm Calm - N/A   Clear
4:22 AM 75.2 °F - 73.4 °F 94% 30.08 in 3.0 mi Calm Calm - N/A   Clear
4:37 AM 73.4 °F - 73.4 °F 100% 30.07 in 2.5 mi Calm Calm - N/A   Clear
4:53 AM 73.9 °F - 73.0 °F 97% 30.04 in 3.0 mi Calm Calm - N/A   Clear
5:04 AM 73.4 °F - 73.4 °F 100% 30.07 in 2.5 mi SSE 3.5 mph - N/A   Clear
5:11 AM 73.4 °F - 73.4 °F 100% 30.07 in 3.0 mi Calm Calm - N/A   Clear
5:48 AM 73.4 °F - 73.4 °F 100% 30.07 in 2.0 mi Calm Calm - N/A   Clear
5:53 AM 73.9 °F - 72.0 °F 93% 30.04 in 2.5 mi Calm Calm - N/A   Clear
6:01 AM 73.4 °F - 73.4 °F 100% 30.07 in 3.0 mi Calm Calm - N/A   Clear
6:15 AM 73.4 °F - 71.6 °F 94% 30.07 in 2.5 mi Calm Calm - N/A   Clear
6:53 AM 75.0 °F - 73.0 °F 94% 30.04 in 3.0 mi Calm Calm - N/A   Clear
7:53 AM 77.0 °F - 73.9 °F 90% 30.05 in 3.0 mi Calm Calm - N/A   Clear
8:53 AM 80.1 °F 84.5 °F 73.9 °F 81% 30.06 in 5.0 mi SSW 3.5 mph - N/A   Haze
9:53 AM 84.0 °F 91.9 °F 75.0 °F 74% 30.05 in 6.0 mi WSW 5.8 mph - N/A   Haze
10:53 AM 86.0 °F 93.8 °F 73.9 °F 67% 30.05 in 7.0 mi West 9.2 mph - N/A   Partly Cloudy
11:53 AM 88.0 °F 96.5 °F 73.9 °F 63% 30.07 in 7.0 mi Variable 5.8 mph - N/A   Partly Cloudy
12:53 PM 89.1 °F 98.0 °F 73.9 °F 61% 30.01 in 7.0 mi Variable 4.6 mph - N/A   Scattered Clouds
1:53 PM 90.0 °F 99.0 °F 73.9 °F 59% 29.98 in 8.0 mi West 6.9 mph - N/A   Mostly Cloudy
2:16 PM 87.8 °F 95.6 °F 73.4 °F 62% 30.00 in 8.0 mi WSW 6.9 mph - N/A Thunderstorm Scattered Clouds
2:53 PM 82.9 °F 88.8 °F 73.0 °F 72% 29.98 in 8.0 mi SSW 11.5 mph - 0.00 in Rain , Thunderstorm Light Thunderstorms and Rain
3:53 PM 77.0 °F - 69.1 °F 76% 29.96 in 8.0 mi SW 12.7 mph - 0.01 in Thunderstorm Clear
4:42 PM 75.2 °F - 71.6 °F 89% 30.01 in 7.0 mi Calm Calm - 0.00 in Rain , Thunderstorm Light Rain
4:53 PM 75.9 °F - 71.1 °F 85% 30.00 in 6.0 mi West 4.6 mph - 0.00 in Thunderstorm Haze
5:03 PM 75.2 °F - 71.6 °F 89% 30.00 in 6.0 mi West 5.8 mph - N/A   Haze
5:36 PM 75.2 °F - 66.2 °F 73% 30.03 in 10.0 mi Variable 3.5 mph - N/A Thunderstorm Thunderstorm
5:53 PM 75.0 °F - 66.9 °F 76% 30.01 in 8.0 mi NNE 3.5 mph - 0.00 in Rain , Thunderstorm Light Thunderstorms and Rain
6:22 PM 73.4 °F - 69.8 °F 88% 30.01 in 5.0 mi Calm Calm - 0.02 in Rain Light Rain
6:53 PM 73.0 °F - 70.0 °F 90% 29.99 in 5.0 mi Calm Calm - 0.02 in   Clear
7:43 PM 71.6 °F - 69.8 °F 94% 29.98 in 2.5 mi South 3.5 mph - 0.02 in Rain Light Rain
7:53 PM 72.0 °F - 70.0 °F 93% 29.96 in 3.0 mi Calm Calm - 0.02 in Rain Light Rain
8:53 PM 72.0 °F - 70.0 °F 93% 29.97 in 4.0 mi South 6.9 mph - 0.04 in Rain Light Rain
9:53 PM 72.0 °F - 70.0 °F 93% 29.96 in 6.0 mi South 8.1 mph - 0.00 in   Clear
10:53 PM 71.1 °F - 70.0 °F 96% 29.96 in 7.0 mi SSW 6.9 mph - N/A   Clear
11:53 PM 71.1 °F - 69.1 °F 93% 29.94 in 10.0 mi SW 3.5 mph - N/A   Clear